E1521 Weather Reports


time (UTC)temp
C
wind
direction
speed
KPH
gust
KPH
rain 1hr
cm
rain 24hr
cm
rain mn
cm
humidity
%
barometer
mb
20260507224515 33 330 4.8 16.1 0.00 0.00 0.00 10 1009.5
20260507223555 33 21 1.6 11.3 0.00 0.00 0.00 9 1009.6
20260507222536 33 314 3.2 17.7 0.00 0.00 0.00 10 1009.7
20260507221515 33 287 4.8 12.9 0.00 0.00 0.00 10 1009.8
20260507220516 34 301 8.0 14.5 0.00 0.00 0.00 10 1010.0
20260507215515 33 199 1.6 8.0 0.00 0.00 0.00 10 1010.0
20260507214515 33 274 4.8 17.7 0.00 0.00 0.00 10 1010.2
20260507213515 33 273 4.8 14.5 0.00 0.00 0.00 11 1010.3
20260507212515 33 292 6.4 14.5 0.00 0.00 0.00 11 1010.5
20260507211535 33 296 6.4 17.7 0.00 0.00 0.00 11 1010.6
20260507210515 32 292 3.2 14.5 0.00 0.00 0.00 11 1010.8
20260507205516 33 286 8.0 16.1 0.00 0.00 0.00 11 1010.9
20260507204515 32 310 4.8 14.5 0.00 0.00 0.00 12 1011.0
20260507203516 33 313 3.2 11.3 0.00 0.00 0.00 12 1011.2
20260507202515 33 312 3.2 9.7 0.00 0.00 0.00 11 1011.4
20260507201515 33 64 0.0 4.8 0.00 0.00 0.00 12 1011.6
20260507200536 33 289 3.2 8.0 0.00 0.00 0.00 11 1011.8
20260507195515 33 223 1.6 6.4 0.00 0.00 0.00 11 1011.9
20260507194516 32 227 3.2 11.3 0.00 0.00 0.00 12 1012.1
20260507193515 32 282 3.2 14.5 0.00 0.00 0.00 12 1012.2
20260507192516 31 292 4.8 12.9 0.00 0.00 0.00 13 1012.5
20260507191635 31 330 3.2 14.5 0.00 0.00 0.00 14 1012.6
20260507190556 31 324 1.6 8.0 0.00 0.00 0.00 13 1012.8
20260507185555 31 296 1.6 4.8 0.00 0.00 0.00 13 1013.0
20260507184515 31 133 1.6 8.0 0.00 0.00 0.00 14 1013.1
20260507183515 30 100 0.0 8.0 0.00 0.00 0.00 14 1013.2
20260507182556 30 330 1.6 11.3 0.00 0.00 0.00 15 1013.3
20260507181515 29 326 0.0 6.4 0.00 0.00 0.00 16 1013.4
20260507180535 29 338 1.6 9.7 0.00 0.00 0.00 16 1013.5
20260507175516 29 311 0.0 6.4 0.00 0.00 0.00 17 1013.6
20260507174535 29 331 1.6 8.0 0.00 0.00 0.00 18 1013.7
20260507173515 29 324 0.0 3.2 0.00 0.00 0.00 17 1013.9
20260507172516 29 130 1.6 6.4 0.00 0.00 0.00 18 1014.0
20260507171517 28 352 0.0 1.6 0.00 0.00 0.00 19 1014.0
20260507170517 28 334 0.0 3.2 0.00 0.00 0.00 20 1014.1
20260507165517 28 295 0.0 4.8 0.00 0.00 0.00 21 1014.1
20260507164517 27 339 0.0 1.6 0.00 0.00 0.00 22 1014.2
20260507163517 27 134 0.0 4.8 0.00 0.00 0.00 23 1014.3
20260507162517 26 156 0.0 3.2 0.00 0.00 0.00 25 1014.3
20260507161515 26 125 0.0 1.6 0.00 0.00 0.00 25 1014.4
20260507160517 25 161 0.0 3.2 0.00 0.00 0.00 26 1014.5
20260507155537 25 132 0.0 3.2 0.00 0.00 0.00 26 1014.5
20260507154516 25 132 0.0 3.2 0.00 0.00 0.00 26 1014.6
20260507153517 24 159 0.0 3.2 0.00 0.00 0.00 27 1014.7
20260507152517 23 0.0 4.8 0.00 0.00 0.00 29 1014.6
20260507151518 22 125 1.6 4.8 0.00 0.00 0.00 29 1014.6
20260507150517 22 139 1.6 4.8 0.00 0.00 0.00 31 1014.6
20260507145517 21 143 1.6 4.8 0.00 0.00 0.00 32 1014.7
20260507144517 20 140 1.6 3.2 0.00 0.00 0.00 33 1014.7
20260507143536 20 130 1.6 4.8 0.00 0.00 0.00 34 1014.7
20260507142517 19 135 1.6 4.8 0.00 0.00 0.00 35 1014.7
20260507141517 18 128 1.6 4.8 0.00 0.00 0.00 36 1014.6
20260507140519 17 129 1.6 6.4 0.00 0.00 0.00 37 1014.6
20260507135517 17 132 1.6 4.8 0.00 0.00 0.00 38 1014.5
20260507134517 16 127 1.6 6.4 0.00 0.00 0.00 39 1014.3
20260507133517 16 132 3.2 8.0 0.00 0.00 0.00 40 1014.1
20260507132516 16 137 1.6 6.4 0.00 0.00 0.00 41 1014.0
20260507131517 15 131 3.2 6.4 0.00 0.00 0.00 42 1013.9
20260507130537 15 133 1.6 6.4 0.00 0.00 0.00 43 1013.8
20260507125516 14 135 0.0 3.2 0.00 0.00 0.00 43 1013.7
20260507124516 14 130 1.6 6.4 0.00 0.00 0.00 43 1013.8
20260507123516 15 131 0.0 4.8 0.00 0.00 0.00 44 1013.7
20260507122536 15 128 1.6 4.8 0.00 0.00 0.00 43 1013.7
20260507121536 15 133 1.6 6.4 0.00 0.00 0.00 43 1013.6
20260507120516 15 135 0.0 1.6 0.00 0.00 0.00 43 1013.7
20260507115536 15 128 1.6 4.8 0.00 0.00 0.00 42 1013.8
20260507114516 15 128 0.0 3.2 0.00 0.00 0.00 43 1013.7
20260507113517 15 133 1.6 3.2 0.00 0.00 0.00 43 1013.7
20260507112519 15 0.0 0.0 0.00 0.00 0.00 44 1013.7
20260507111516 15 145 0.0 6.4 0.00 0.00 0.00 44 1013.7
20260507110516 15 133 0.0 3.2 0.00 0.00 0.00 49 1013.7
20260507105516 15 9 0.0 1.6 0.00 0.00 0.00 49 1013.8
20260507104516 15 0.0 0.0 0.00 0.00 0.00 50 1013.8
20260507103537 15 0.0 0.0 0.00 0.00 0.00 52 1013.8
20260507102517 15 0.0 0.0 0.00 0.00 0.00 51 1013.9
20260507101517 15 0.0 0.0 0.00 0.00 0.00 51 1014.0
20260507100537 15 0.0 0.0 0.00 0.00 0.00 51 1014.1
20260507095516 15 0.0 0.0 0.00 0.00 0.00 51 1014.1
20260507094516 15 0.0 0.0 0.00 0.00 0.00 51 1014.1
20260507093516 16 0.0 0.0 0.00 0.00 0.00 51 1014.2
20260507092517 16 0.0 0.0 0.00 0.00 0.00 49 1014.3
20260507091516 16 0.0 0.0 0.00 0.00 0.00 50 1014.3
20260507090516 16 0.0 0.0 0.00 0.00 0.00 49 1014.4
20260507085517 16 0.0 0.0 0.00 0.00 0.00 48 1014.4
20260507084517 16 0.0 0.0 0.00 0.00 0.00 48 1014.5
20260507083516 16 0.0 0.0 0.00 0.00 0.00 46 1014.6
20260507082516 16 0.0 0.0 0.00 0.00 0.00 45 1014.6
20260507081517 17 0.0 0.0 0.00 0.00 0.00 44 1014.7
20260507080516 17 0.0 0.0 0.00 0.00 0.00 44 1014.7
20260507075537 17 0.0 0.0 0.00 0.00 0.00 42 1014.7
20260507074516 17 0.0 0.0 0.00 0.00 0.00 45 1014.7
20260507073536 18 0.0 0.0 0.00 0.00 0.00 47 1014.7
20260507072516 18 0.0 0.0 0.00 0.00 0.00 41 1014.7
20260507071517 19 0.0 0.0 0.00 0.00 0.00 40 1014.7
20260507070517 19 9 0.0 1.6 0.00 0.00 0.00 37 1014.7
20260507065516 19 283 0.0 1.6 0.00 0.00 0.00 40 1014.8
20260507064516 19 0.0 0.0 0.00 0.00 0.00 38 1014.8
20260507063516 19 0.0 0.0 0.00 0.00 0.00 40 1014.7
20260507062537 20 0.0 0.0 0.00 0.00 0.00 38 1014.7
20260507061558 20 0.0 0.0 0.00 0.00 0.00 37 1014.6
20260507060519 20 0.0 0.0 0.00 0.00 0.00 36 1014.6
20260507055516 20 0.0 0.0 0.00 0.00 0.00 34 1014.6
20260507054515 20 0.0 0.0 0.00 0.00 0.00 35 1014.5
20260507053517 20 0.0 0.0 0.00 0.00 0.00 34 1014.6
20260507052519 20 0.0 0.0 0.00 0.00 0.00 34 1014.5
20260507051517 20 0.0 0.0 0.00 0.00 0.00 34 1014.5
20260507050516 20 0.0 0.0 0.00 0.00 0.00 35 1014.5
20260507045517 20 0.0 0.0 0.00 0.00 0.00 36 1014.5
20260507044517 20 0.0 0.0 0.00 0.00 0.00 34 1014.4
20260507043517 21 0.0 0.0 0.00 0.00 0.00 32 1014.3
20260507042518 21 0.0 0.0 0.00 0.00 0.00 32 1014.2
20260507041515 22 0.0 0.0 0.00 0.00 0.00 30 1014.2
20260507040516 22 0.0 0.0 0.00 0.00 0.00 28 1014.1
20260507035516 23 0.0 0.0 0.00 0.00 0.00 27 1013.9
20260507034535 23 0.0 0.0 0.00 0.00 0.00 27 1013.9
20260507033535 24 0.0 1.6 0.00 0.00 0.00 25 1013.8
20260507032516 24 283 0.0 1.6 0.00 0.00 0.00 25 1013.7
20260507031515 25 0.0 1.6 0.00 0.00 0.00 24 1013.5
20260507030515 25 0.0 0.0 0.00 0.00 0.00 24 1013.4
20260507025515 25 0.0 1.6 0.00 0.00 0.00 23 1013.2
20260507024518 25 281 0.0 1.6 0.00 0.00 0.00 23 1013.1
20260507023521 25 0.0 0.0 0.00 0.00 0.00 23 1013.0
20260507022516 26 0.0 1.6 0.00 0.00 0.00 22 1013.0
20260507021517 26 269 1.6 4.8 0.00 0.00 0.00 22 1012.8
20260507020516 26 279 0.0 1.6 0.00 0.00 0.00 21 1012.8
20260507015536 27 276 0.0 6.4 0.00 0.00 0.00 21 1012.7
20260507014516 27 299 1.6 4.8 0.00 0.00 0.00 20 1012.8
20260507013538 27 283 1.6 6.4 0.00 0.00 0.00 20 1012.8
20260507012515 27 285 1.6 6.4 0.00 0.00 0.00 20 1012.7
20260507011517 28 292 4.8 8.0 0.00 0.00 0.00 20 1012.7
20260507010555 28 275 0.0 3.2 0.00 0.00 0.00 20 1012.8
20260507005516 28 276 1.6 9.7 0.00 0.00 0.00 20 1012.7
20260507004515 28 308 0.0 9.7 0.00 0.00 0.00 20 1012.7
20260507003515 28 303 3.2 9.7 0.00 0.00 0.00 20 1012.7
20260507002515 28 324 3.2 6.4 0.00 0.00 0.00 20 1012.6
20260507001535 28 340 1.6 9.7 0.00 0.00 0.00 20 1012.6
20260507000536 28 321 4.8 12.9 0.00 0.00 0.00 20 1012.7
20260506235515 28 291 8.0 14.5 0.00 0.00 0.00 20 1012.6
20260506234535 27 308 1.6 9.7 0.00 0.00 0.00 20 1012.6
20260506233516 27 280 1.6 11.3 0.00 0.00 0.00 20 1012.7
20260506232535 28 270 3.2 9.7 0.00 0.00 0.00 21 1012.8
20260506231535 27 310 4.8 14.5 0.00 0.00 0.00 21 1012.9
20260506230536 28 318 3.2 8.0 0.00 0.00 0.00 20 1013.0
20260506225515 27 58 1.6 11.3 0.00 0.00 0.00 20 1013.1